Location: Palomar Mountain Lodge
(33.3110°N, 116.8495°W)
Time: 14:14:34
(UTC-07:00)

NOSS 3-1 (C) - Pass Details

Date: 14 June 2018
Orbit: 804 x 1404 km, 63.4° (Epoch: 13 June)

Event Time Altitude Azimuth Distance (km) Brightness Sun altitude
Rises 20:31:40 0° 211° (SSW) 3,307 6.3 -6.8°
Reaches altitude 10° 20:34:00 10° 212° (SSW) 2,400 5.6 -7.2°
Maximum altitude 20:39:29 82° 300° (WNW) 876 3.4 -8.2°
Drops below altitude 10° 20:45:36 10° 29° (NNE) 2,667 5.9 -9.2°
Sets 20:48:20 0° 30° (NNE) 3,702 6.6 -9.7°
